星链-1226 (STARLINK-1226 )

导读 | 星芒AI

STARLINK-1226 是 SpaceX 星链计划中的一颗低轨通信卫星,属于第 12 批部署的星链卫星群。该卫星于 2021 年 5 月 28 日由猎鹰 9 号火箭从肯尼迪航天中心发射升空,运行在约 550 公里的近地轨道上。它采用先进的星间激光通信技术,旨在为全球用户提供高速、低延迟的互联网服务。作为星链星座的重要组成部分,STARLINK-1226 有助于提升网络覆盖范围与连接稳定性,特别是在偏远和网络基础设施薄弱的地区。

基本信息
目录编号:
45229
目录名称:
STARLINK-1226
国际标识:
2020-012BD
轨道中心:
EARTH
卫星名称:
星链-1226
卫星全名:
星链-1226 (STARLINK-1226 )
卫星状态:
在轨 (已飞行2128 天)
发射日期:
2020-02-17 UTC
国别 :
美国 (US)
星等 :
--
轨道信息
数据来源 国际轨道数据
星历时间: 2025-12-14T18:38:51+0800
1天前
查看轨道信息
半长轴: 6925.416km
偏心率: 0.000154
轨道倾角: 53.058°
近地点辐角 96.479°
升交点赤经 29.300°
平近点角 263.637°
近地点: 546.214km
远地点: 548.348km
周期: 95.594分钟
每日圈数: 15.063782
详细信息
固有亮度:
5
最大亮度:
2.5
卫星平台:
Starlink V1.0
覆盖范围:
全球
运营商:
太空探索技术公司
运营商所在国:
美国
制造商(研发单位):
太空探索技术公司
制造商所在国:
美国
使用方式:
暂无
卫星简介
星链(Starlink)计划是由太空探索技术公司(SpaceX)提出的一个巨型低轨卫星互联网星座项目,计划在2019年至2024年间在太空搭建由约1.2万颗卫星组成的“星链”网络,其中1584颗将部署在地球上空550千米处的近地轨道,并从2020年开始工作。该卫星仍在工作。
2D轨道图
3D轨道图
轨道高度分析图
轨道倾角分析图
轨道综合分析图
查看轨道综合分析图